FIN703 UBBB-EFHK

Flight info

Callsign FIN703
Flight time 5h 15m
Altitude 40000
Route AGDAM M747 LUSAL M11 REBLO UM11 CRM UL746 ODERO DCT LUGEB DCT LAPKA DCT KENIN DCT TOXAR/N0492F410 DCT BOKSU DCT INBOV DCT GUNTA DCT SOKVA DCT ANAMA DCT KEMET Q11 INTOR
Aircraft A359/H-SDE2E3GHIJ3J4J5LM1ORWXY/LB1D1

Departure

Time 2026-04-26 16:46
Airport Heydar Aliyev International Airport (UBBB)

Arrival

Time 2026-04-26 22:01
Airport Helsinki Vantaa Airport (EFHK)
Time Latitude Longitude Altitude Speed Heading
2026-04-26 16:23 40.46646 50.05970 23 ft 0 kts
2026-04-26 16:27 40.46632 50.05971 -33 ft 2 kts 356°
2026-04-26 16:28 40.46615 50.05973 37 ft 2 kts 348°
2026-04-26 16:28 40.46599 50.05978 24 ft 2 kts 352°
2026-04-26 16:28 40.46583 50.05975 25 ft 2 kts 32°
2026-04-26 16:28 40.46570 50.05962 25 ft 2 kts 40°
2026-04-26 16:29 40.46558 50.05948 24 ft 2 kts 44°
2026-04-26 16:29 40.46546 50.05932 25 ft 2 kts 47°
2026-04-26 16:29 40.46535 50.05916 25 ft 2 kts 50°
2026-04-26 16:29 40.46526 50.05900 25 ft 2 kts 54°
2026-04-26 16:30 40.46518 50.05882 26 ft 2 kts 75°
2026-04-26 16:30 40.46517 50.05862 26 ft 2 kts 87°
2026-04-26 16:30 40.46516 50.05841 26 ft 2 kts 87°
2026-04-26 16:30 40.46516 50.05831 26 ft 0 kts 87°
2026-04-26 16:34 40.46517 50.05853 26 ft 8 kts 88°
2026-04-26 16:34 40.46550 50.05955 24 ft 18 kts 44°
2026-04-26 16:34 40.46619 50.06085 21 ft 16 kts 18°
2026-04-26 16:34 40.46694 50.06094 21 ft 16 kts 13°
2026-04-26 16:35 40.46794 50.06095 21 ft 15 kts 358°
2026-04-26 16:35 40.46935 50.06091 21 ft 25 kts 358°
2026-04-26 16:35 40.47128 50.06090 21 ft 31 kts
2026-04-26 16:35 40.47352 50.06085 21 ft 33 kts 359°
2026-04-26 16:36 40.47588 50.06081 21 ft 35 kts
2026-04-26 16:36 40.47809 50.06078 21 ft 13 kts 359°
2026-04-26 16:36 40.47899 50.06077 21 ft 15 kts 359°
2026-04-26 16:36 40.48009 50.06075 21 ft 17 kts 360°
2026-04-26 16:37 40.48138 50.06073 21 ft 20 kts 359°
2026-04-26 16:37 40.48285 50.06072 21 ft 22 kts 358°
2026-04-26 16:37 40.48411 50.06068 21 ft 3 kts 359°
2026-04-26 16:37 40.48416 50.06068 21 ft 0 kts 359°
2026-04-26 16:41 40.48446 50.06071 21 ft 11 kts
2026-04-26 16:42 40.48499 50.06146 20 ft 14 kts 81°
2026-04-26 16:42 40.48501 50.06186 19 ft 0 kts 88°
2026-04-26 16:43 40.48500 50.06195 19 ft 2 kts 91°
2026-04-26 16:43 40.48493 50.06252 18 ft 10 kts 117°
2026-04-26 16:43 40.48444 50.06277 18 ft 8 kts 180°
2026-04-26 16:43 40.48440 50.06277 18 ft 0 kts 180°
2026-04-26 16:45 40.48405 50.06278 18 ft 27 kts 178°
2026-04-26 16:45 40.47966 50.06287 20 ft 97 kts 179°
2026-04-26 16:46 40.47095 50.06301 55 ft 151 kts 179°
2026-04-26 16:46 40.46066 50.06317 699 ft 149 kts 179°
2026-04-26 16:46 40.44934 50.06334 941 ft 180 kts 178°
2026-04-26 16:46 40.43627 50.06351 1346 ft 196 kts 178°
2026-04-26 16:47 40.42222 50.06378 1736 ft 211 kts 177°
2026-04-26 16:47 40.40658 50.06415 1913 ft 238 kts 178°
2026-04-26 16:47 40.38920 50.06407 2221 ft 260 kts 184°
2026-04-26 16:47 40.37166 50.05706 2765 ft 267 kts 208°
2026-04-26 16:48 40.35543 50.04525 3578 ft 266 kts 212°
2026-04-26 16:48 40.33961 50.03306 4473 ft 261 kts 213°
2026-04-26 16:48 40.32423 50.02115 5379 ft 255 kts 214°
2026-04-26 16:48 40.30887 50.00939 6046 ft 259 kts 215°
2026-04-26 16:49 40.29429 49.99544 6640 ft 257 kts 231°
2026-04-26 16:49 40.28488 49.97613 7249 ft 251 kts 253°
2026-04-26 16:49 40.28195 49.95377 7867 ft 250 kts 268°
2026-04-26 16:49 40.28143 49.93093 8517 ft 252 kts 270°
2026-04-26 16:50 40.28115 49.90780 9163 ft 255 kts 269°
2026-04-26 16:50 40.28084 49.88666 9772 ft 257 kts 269°
2026-04-26 16:50 40.28041 49.86312 10304 ft 263 kts 269°
2026-04-26 16:50 40.27990 49.83842 10557 ft 279 kts 269°
2026-04-26 16:51 40.27933 49.81235 10806 ft 294 kts 269°
2026-04-26 16:51 40.27873 49.78509 11048 ft 308 kts 269°
2026-04-26 16:51 40.27814 49.75636 11262 ft 321 kts 269°
2026-04-26 16:51 40.27754 49.72681 11588 ft 329 kts 269°
2026-04-26 16:52 40.27687 49.69649 12040 ft 333 kts 269°
2026-04-26 16:52 40.27638 49.67629 12339 ft 336 kts 269°
2026-04-26 16:52 40.27537 49.63513 12963 ft 340 kts 268°
2026-04-26 16:52 40.27459 49.60405 13469 ft 342 kts 269°
2026-04-26 16:53 40.27380 49.57274 13925 ft 345 kts 269°
2026-04-26 16:53 40.27299 49.54118 14341 ft 348 kts 268°
2026-04-26 16:53 40.27216 49.50943 14751 ft 350 kts 268°
2026-04-26 16:53 40.27132 49.47741 15157 ft 353 kts 268°
2026-04-26 16:54 40.27046 49.44525 15586 ft 356 kts 268°
2026-04-26 16:54 40.26960 49.41280 16016 ft 358 kts 268°
2026-04-26 16:54 40.26875 49.38006 16431 ft 361 kts 268°
2026-04-26 16:54 40.26818 49.34712 16839 ft 364 kts 271°
2026-04-26 16:55 40.27040 49.31400 17273 ft 366 kts 276°
2026-04-26 16:55 40.27406 49.28094 17668 ft 369 kts 278°
2026-04-26 16:55 40.27813 49.25055 18022 ft 372 kts 279°
2026-04-26 16:55 40.28306 49.21722 18448 ft 374 kts 280°
2026-04-26 16:56 40.29086 49.16660 18982 ft 377 kts 280°
2026-04-26 16:56 40.29597 49.13337 19372 ft 378 kts 280°
2026-04-26 16:56 40.30107 49.09959 19776 ft 379 kts 280°
2026-04-26 16:57 40.30613 49.06561 20159 ft 380 kts 280°
2026-04-26 16:57 40.31113 49.03156 20526 ft 382 kts 279°
2026-04-26 16:57 40.32112 48.96294 21298 ft 384 kts 279°
2026-04-26 16:58 40.32611 48.92845 21668 ft 386 kts 279°
2026-04-26 16:58 40.32948 48.90511 21909 ft 387 kts 279°
2026-04-26 16:58 40.34114 48.82422 22729 ft 390 kts 279°
2026-04-26 16:59 40.34616 48.78926 23064 ft 392 kts 279°
2026-04-26 16:59 40.35626 48.71876 23747 ft 395 kts 279°
2026-04-26 17:00 40.36639 48.64772 24358 ft 397 kts 278°
2026-04-26 17:00 40.37651 48.57643 24946 ft 399 kts 278°
2026-04-26 17:00 40.38158 48.54064 25239 ft 399 kts 278°
2026-04-26 17:01 40.38663 48.50483 25569 ft 400 kts 278°
2026-04-26 17:01 40.39170 48.46886 25877 ft 401 kts 278°
2026-04-26 17:01 40.39675 48.43286 26189 ft 402 kts 278°
2026-04-26 17:01 40.40180 48.39674 26499 ft 403 kts 278°
2026-04-26 17:02 40.40687 48.36051 26821 ft 405 kts 278°
2026-04-26 17:02 40.41194 48.32411 27178 ft 406 kts 278°
2026-04-26 17:02 40.41700 48.28774 27547 ft 406 kts 278°
2026-04-26 17:02 40.42209 48.25113 27895 ft 408 kts 278°
2026-04-26 17:03 40.42716 48.21445 28266 ft 409 kts 277°
2026-04-26 17:03 40.43225 48.17763 28669 ft 410 kts 277°
2026-04-26 17:03 40.43734 48.14071 29064 ft 411 kts 277°
2026-04-26 17:03 40.44243 48.10367 29424 ft 414 kts 277°
2026-04-26 17:04 40.44753 48.06641 29811 ft 415 kts 277°
2026-04-26 17:04 40.45264 48.02906 30198 ft 417 kts 277°
2026-04-26 17:04 40.45776 47.99154 30530 ft 418 kts 277°
2026-04-26 17:04 40.46289 47.95382 30800 ft 421 kts 277°
2026-04-26 17:05 40.46798 47.91629 31097 ft 424 kts 277°
2026-04-26 17:05 40.47314 47.87813 31400 ft 426 kts 277°
2026-04-26 17:05 40.47833 47.83974 31694 ft 428 kts 277°
2026-04-26 17:05 40.48352 47.80118 31959 ft 430 kts 277°
2026-04-26 17:06 40.48873 47.76238 32241 ft 432 kts 277°
2026-04-26 17:06 40.49394 47.72352 32532 ft 433 kts 277°
2026-04-26 17:06 40.49916 47.68451 32848 ft 434 kts 277°
2026-04-26 17:06 40.50437 47.64544 33222 ft 433 kts 277°
2026-04-26 17:07 40.50955 47.60653 33624 ft 432 kts 277°
2026-04-26 17:07 40.51469 47.56780 34049 ft 430 kts 277°
2026-04-26 17:07 40.51981 47.52912 34398 ft 429 kts 277°
2026-04-26 17:07 40.52491 47.49041 34658 ft 430 kts 276°
2026-04-26 17:08 40.53002 47.45153 34929 ft 431 kts 276°
2026-04-26 17:08 40.53510 47.41269 35243 ft 431 kts 276°
2026-04-26 17:08 40.54017 47.37393 35539 ft 431 kts 276°
2026-04-26 17:08 40.54524 47.33503 35821 ft 432 kts 276°
2026-04-26 17:09 40.55030 47.29612 36115 ft 432 kts 276°
2026-04-26 17:09 40.55372 47.26982 36317 ft 432 kts 276°
2026-04-26 17:09 40.56040 47.21817 36690 ft 433 kts 276°
2026-04-26 17:09 40.56544 47.17909 36953 ft 434 kts 276°
2026-04-26 17:10 40.57046 47.13999 37227 ft 434 kts 276°
2026-04-26 17:10 40.57549 47.10086 37507 ft 434 kts 276°
2026-04-26 17:10 40.58050 47.06168 37792 ft 434 kts 276°
2026-04-26 17:10 40.58550 47.02249 38041 ft 435 kts 276°
2026-04-26 17:11 40.59050 46.98316 38299 ft 436 kts 276°
2026-04-26 17:11 40.59549 46.94379 38569 ft 436 kts 276°
2026-04-26 17:11 40.60046 46.90454 38815 ft 436 kts 276°
2026-04-26 17:11 40.60543 46.86512 38984 ft 437 kts 276°
2026-04-26 17:12 40.61534 46.78619 39349 ft 438 kts 276°
2026-04-26 17:12 40.62029 46.74661 39547 ft 438 kts 276°
2026-04-26 17:13 40.63016 46.66739 39858 ft 439 kts 276°
2026-04-26 17:13 40.63511 46.62767 39896 ft 442 kts 276°
2026-04-26 17:14 40.65034 46.50614 40050 ft 452 kts 275°
2026-04-26 17:14 40.66507 46.38402 40073 ft 451 kts 275°
2026-04-26 17:15 40.67980 46.26163 40076 ft 451 kts 275°
2026-04-26 17:16 40.68960 46.17995 40073 ft 451 kts 275°
2026-04-26 17:16 40.69940 46.09816 40075 ft 451 kts 275°
2026-04-26 17:17 40.70908 46.01646 40069 ft 451 kts 275°
2026-04-26 17:17 40.71873 45.93469 40067 ft 452 kts 275°
2026-04-26 17:18 40.72829 45.85329 40061 ft 452 kts 275°
2026-04-26 17:18 40.73779 45.77136 40057 ft 452 kts 275°
2026-04-26 17:19 40.75200 45.64816 40060 ft 453 kts 275°
2026-04-26 17:19 40.76142 45.56597 40059 ft 453 kts 275°
2026-04-26 17:20 40.76769 45.51089 40063 ft 454 kts 275°
2026-04-26 17:20 40.77522 45.41499 40061 ft 452 kts 270°
2026-04-26 17:21 40.77807 45.33228 40062 ft 451 kts 269°
2026-04-26 17:21 40.78077 45.24942 40065 ft 452 kts 269°
2026-04-26 17:22 40.78398 45.16659 40062 ft 453 kts 270°
2026-04-26 17:22 40.78756 45.08367 40056 ft 453 kts 270°
2026-04-26 17:23 40.79121 45.00056 40064 ft 454 kts 270°
2026-04-26 17:23 40.79478 44.91735 40060 ft 454 kts 270°
2026-04-26 17:24 40.79825 44.83403 40063 ft 455 kts 270°
2026-04-26 17:24 40.80166 44.75059 40062 ft 455 kts 270°
2026-04-26 17:25 40.80502 44.66712 40065 ft 456 kts 270°
2026-04-26 17:25 40.80833 44.58408 40069 ft 457 kts 270°
2026-04-26 17:26 40.81168 44.50041 40069 ft 457 kts 270°
2026-04-26 17:26 40.81496 44.41670 40076 ft 457 kts 270°
2026-04-26 17:27 40.81795 44.33283 40082 ft 457 kts 270°
2026-04-26 17:27 40.82094 44.24893 40090 ft 458 kts 270°
2026-04-26 17:28 40.82392 44.16491 40097 ft 458 kts 270°
2026-04-26 17:28 40.82688 44.08081 40100 ft 459 kts 270°
2026-04-26 17:29 40.82932 44.01077 40101 ft 460 kts 270°
2026-04-26 17:29 40.83265 43.91214 40104 ft 460 kts 270°
2026-04-26 17:30 40.83545 43.82767 40101 ft 461 kts 270°
2026-04-26 17:30 40.83821 43.74312 40103 ft 461 kts 270°
2026-04-26 17:31 40.84101 43.65839 40103 ft 462 kts 270°
2026-04-26 17:31 40.84533 43.57371 40100 ft 463 kts 271°
2026-04-26 17:32 40.85030 43.48893 40096 ft 463 kts 271°
2026-04-26 17:32 40.85516 43.40411 40092 ft 463 kts 271°
2026-04-26 17:33 40.85985 43.31932 40092 ft 463 kts 271°
2026-04-26 17:34 40.86664 43.19262 40092 ft 463 kts 271°
2026-04-26 17:34 40.87112 43.10769 40084 ft 464 kts 271°
2026-04-26 17:35 40.87567 43.02254 40085 ft 464 kts 272°
2026-04-26 17:35 40.88011 42.93746 40081 ft 465 kts 271°
2026-04-26 17:36 40.88441 42.85225 40078 ft 465 kts 271°
2026-04-26 17:36 40.88861 42.76697 40077 ft 465 kts 271°
2026-04-26 17:37 40.89274 42.68175 40069 ft 465 kts 271°
2026-04-26 17:37 40.89681 42.59655 40064 ft 465 kts 271°
2026-04-26 17:38 40.90279 42.46874 40061 ft 464 kts 271°
2026-04-26 17:38 40.90669 42.38356 40056 ft 464 kts 271°
2026-04-26 17:39 40.91051 42.29914 40047 ft 463 kts 271°
2026-04-26 17:39 40.91431 42.21399 40047 ft 464 kts 271°
2026-04-26 17:40 40.91743 42.14269 40032 ft 464 kts 271°
2026-04-26 17:40 40.92169 42.04384 40030 ft 464 kts 271°
2026-04-26 17:41 40.92528 41.95875 40028 ft 464 kts 271°
2026-04-26 17:41 40.92879 41.87365 40016 ft 464 kts 271°
2026-04-26 17:42 40.93226 41.78851 40013 ft 463 kts 271°
2026-04-26 17:42 40.93567 41.70335 40014 ft 464 kts 271°
2026-04-26 17:43 40.93902 41.61815 40012 ft 464 kts 271°
2026-04-26 17:43 40.94222 41.53293 40014 ft 464 kts 271°
2026-04-26 17:44 40.94541 41.44763 40007 ft 465 kts 271°
2026-04-26 17:44 40.94866 41.36225 40004 ft 465 kts 271°
2026-04-26 17:45 40.95179 41.27682 40008 ft 465 kts 271°
2026-04-26 17:45 40.95485 41.19132 39999 ft 465 kts 271°
2026-04-26 17:46 40.95780 41.10569 39989 ft 466 kts 271°
2026-04-26 17:46 40.96073 41.02017 39977 ft 466 kts 271°
2026-04-26 17:47 40.96311 40.94909 39967 ft 465 kts 271°
2026-04-26 17:47 40.96642 40.84911 39956 ft 465 kts 271°
2026-04-26 17:48 40.96910 40.76422 39949 ft 465 kts 271°
2026-04-26 17:48 40.97171 40.67866 39958 ft 465 kts 271°
2026-04-26 17:49 40.97430 40.59319 39956 ft 464 kts 270°
2026-04-26 17:49 40.97684 40.50780 39958 ft 464 kts 270°
2026-04-26 17:50 40.97931 40.42243 39961 ft 464 kts 270°
2026-04-26 17:50 40.98171 40.33706 39956 ft 464 kts 270°
2026-04-26 17:51 40.98406 40.25181 39956 ft 464 kts 270°
2026-04-26 17:51 40.98636 40.16649 39955 ft 464 kts 270°
2026-04-26 17:52 40.98855 40.08108 39947 ft 464 kts 270°
2026-04-26 17:52 40.99062 39.99624 39944 ft 464 kts 270°
2026-04-26 17:53 40.99266 39.91086 39940 ft 464 kts 270°
2026-04-26 17:54 40.99703 39.78276 39939 ft 466 kts 274°
2026-04-26 17:54 41.00449 39.69755 39938 ft 466 kts 275°
2026-04-26 17:55 41.01271 39.61250 39940 ft 466 kts 276°
2026-04-26 17:55 41.02096 39.52745 39946 ft 466 kts 276°
2026-04-26 17:56 41.02904 39.44247 39954 ft 465 kts 275°
2026-04-26 17:57 41.04489 39.27244 39963 ft 465 kts 275°
2026-04-26 17:57 41.05269 39.18748 39965 ft 464 kts 275°
2026-04-26 17:58 41.06827 39.01827 39967 ft 464 kts 276°
2026-04-26 17:59 41.07995 38.89101 39961 ft 464 kts 276°
2026-04-26 17:59 41.08765 38.80609 39956 ft 464 kts 275°
2026-04-26 18:00 41.09527 38.72129 39952 ft 463 kts 275°
2026-04-26 18:00 41.10281 38.63644 39951 ft 463 kts 275°
2026-04-26 18:01 41.11009 38.55161 39950 ft 463 kts 275°
2026-04-26 18:01 41.11713 38.46675 39947 ft 463 kts 275°
2026-04-26 18:02 41.12180 38.40997 39950 ft 463 kts 275°
2026-04-26 18:02 41.13108 38.29696 39955 ft 463 kts 275°
2026-04-26 18:03 41.13807 38.21205 39957 ft 463 kts 275°
2026-04-26 18:03 41.14501 38.12707 39959 ft 463 kts 275°
2026-04-26 18:04 41.15187 38.04211 39964 ft 463 kts 275°
2026-04-26 18:05 41.16202 37.91515 39967 ft 463 kts 275°
2026-04-26 18:05 41.16889 37.83022 39972 ft 463 kts 275°
2026-04-26 18:06 41.17613 37.74530 39968 ft 463 kts 275°
2026-04-26 18:06 41.18339 37.66042 39973 ft 463 kts 275°
2026-04-26 18:07 41.19020 37.57545 39972 ft 463 kts 274°
2026-04-26 18:07 41.19517 37.49020 39969 ft 463 kts 274°
2026-04-26 18:08 41.20102 37.40514 39974 ft 463 kts 274°
2026-04-26 18:08 41.20732 37.32014 39974 ft 463 kts 275°
2026-04-26 18:09 41.21367 37.23517 39976 ft 462 kts 275°
2026-04-26 18:09 41.21903 37.16452 39975 ft 462 kts 275°
2026-04-26 18:10 41.22570 37.07954 39979 ft 462 kts 275°
2026-04-26 18:10 41.23231 36.99461 39978 ft 462 kts 275°
2026-04-26 18:11 41.23880 36.90967 39982 ft 462 kts 275°
2026-04-26 18:11 41.24521 36.82464 39987 ft 463 kts 275°
2026-04-26 18:12 41.25156 36.73958 39991 ft 463 kts 275°
2026-04-26 18:12 41.25780 36.65501 39993 ft 463 kts 275°
2026-04-26 18:13 41.26461 36.57002 39992 ft 463 kts 278°
2026-04-26 18:13 41.28101 36.48696 39994 ft 465 kts 286°
2026-04-26 18:14 41.30125 36.40533 39993 ft 465 kts 287°
2026-04-26 18:14 41.32218 36.32388 39987 ft 465 kts 287°
2026-04-26 18:15 41.34306 36.24233 39981 ft 465 kts 287°
2026-04-26 18:15 41.36371 36.16080 39975 ft 465 kts 287°
2026-04-26 18:16 41.38431 36.07897 39972 ft 466 kts 287°
2026-04-26 18:16 41.41503 35.95632 39972 ft 465 kts 287°
2026-04-26 18:17 41.43544 35.87459 39970 ft 465 kts 287°
2026-04-26 18:17 41.45582 35.79259 39964 ft 465 kts 287°
2026-04-26 18:18 41.47595 35.71133 39962 ft 465 kts 287°
2026-04-26 18:18 41.49616 35.62952 39968 ft 464 kts 287°
2026-04-26 18:19 41.51632 35.54759 39968 ft 464 kts 287°
2026-04-26 18:19 41.53641 35.46571 39966 ft 464 kts 287°
2026-04-26 18:20 41.55629 35.38440 39968 ft 464 kts 287°
2026-04-26 18:20 41.57297 35.31586 39971 ft 464 kts 287°
2026-04-26 18:21 41.59621 35.22007 39968 ft 463 kts 287°
2026-04-26 18:21 41.61599 35.13824 39973 ft 463 kts 287°
2026-04-26 18:22 41.63573 35.05635 39975 ft 462 kts 286°
2026-04-26 18:22 41.65538 34.97457 39975 ft 462 kts 286°
2026-04-26 18:23 41.67481 34.89337 39971 ft 461 kts 286°
2026-04-26 18:23 41.69426 34.81172 39979 ft 461 kts 286°
2026-04-26 18:24 41.71364 34.73014 39985 ft 460 kts 286°
2026-04-26 18:24 41.73307 34.64808 39973 ft 466 kts 286°
2026-04-26 18:25 41.75273 34.56473 39983 ft 471 kts 286°
2026-04-26 18:25 41.77251 34.48077 39979 ft 473 kts 287°
2026-04-26 18:26 41.79203 34.39757 39988 ft 472 kts 287°
2026-04-26 18:26 41.81171 34.31376 39989 ft 471 kts 287°
2026-04-26 18:27 41.83139 34.22993 39983 ft 471 kts 287°
2026-04-26 18:27 41.85086 34.14621 39990 ft 471 kts 287°
2026-04-26 18:28 41.87020 34.06234 39996 ft 471 kts 286°
2026-04-26 18:28 41.88934 33.97901 40001 ft 470 kts 286°
2026-04-26 18:29 41.90854 33.89510 40001 ft 470 kts 286°
2026-04-26 18:29 41.92767 33.81118 40000 ft 470 kts 286°
2026-04-26 18:30 41.94676 33.72712 39997 ft 470 kts 286°
2026-04-26 18:30 41.96501 33.64294 39995 ft 470 kts 284°
2026-04-26 18:31 41.98125 33.55789 39996 ft 469 kts 283°
2026-04-26 18:31 41.99690 33.47276 39999 ft 469 kts 283°
2026-04-26 18:32 42.01280 33.38765 39994 ft 469 kts 284°
2026-04-26 18:32 42.02893 33.30258 39987 ft 470 kts 284°
2026-04-26 18:33 42.04510 33.21745 39992 ft 469 kts 284°
2026-04-26 18:33 42.06119 33.13236 39991 ft 469 kts 284°
2026-04-26 18:34 42.07730 33.04720 39990 ft 469 kts 284°
2026-04-26 18:34 42.09435 32.96236 39982 ft 469 kts 284°
2026-04-26 18:35 42.11174 32.87777 39982 ft 469 kts 285°
2026-04-26 18:35 42.12908 32.79306 39979 ft 469 kts 284°
2026-04-26 18:36 42.14629 32.70828 39976 ft 469 kts 284°
2026-04-26 18:36 42.16328 32.62394 39977 ft 469 kts 284°
2026-04-26 18:37 42.18031 32.53903 39980 ft 469 kts 284°
2026-04-26 18:37 42.19724 32.45410 39977 ft 469 kts 284°
2026-04-26 18:38 42.21413 32.36901 39979 ft 469 kts 284°
2026-04-26 18:38 42.23096 32.28392 39979 ft 470 kts 284°
2026-04-26 18:39 42.24775 32.19871 39970 ft 470 kts 284°
2026-04-26 18:39 42.26444 32.11341 39974 ft 470 kts 284°
2026-04-26 18:40 42.28114 32.02803 39974 ft 470 kts 284°
2026-04-26 18:40 42.29776 31.94265 39973 ft 470 kts 284°
2026-04-26 18:41 42.31435 31.85720 39975 ft 470 kts 284°
2026-04-26 18:41 42.33088 31.77167 39972 ft 470 kts 284°
2026-04-26 18:42 42.34734 31.68614 39970 ft 470 kts 284°
2026-04-26 18:42 42.36374 31.60052 39966 ft 470 kts 284°
2026-04-26 18:43 42.38008 31.51486 39967 ft 470 kts 284°
2026-04-26 18:43 42.39635 31.42919 39960 ft 470 kts 284°
2026-04-26 18:44 42.41255 31.34348 39961 ft 470 kts 284°
2026-04-26 18:44 42.42870 31.25765 39962 ft 470 kts 284°
2026-04-26 18:45 42.44479 31.17180 39962 ft 470 kts 284°
2026-04-26 18:45 42.46080 31.08594 39963 ft 470 kts 284°
2026-04-26 18:46 42.47674 30.99997 39963 ft 470 kts 284°
2026-04-26 18:46 42.49260 30.91395 39957 ft 469 kts 284°
2026-04-26 18:47 42.50813 30.82939 39961 ft 459 kts 284°
2026-04-26 18:47 42.52342 30.74572 39959 ft 457 kts 284°
2026-04-26 18:48 42.53855 30.66252 39958 ft 457 kts 284°
2026-04-26 18:48 42.55372 30.57883 39956 ft 457 kts 284°
2026-04-26 18:49 42.56886 30.49487 39957 ft 458 kts 284°
2026-04-26 18:49 42.58392 30.41101 39960 ft 458 kts 284°
2026-04-26 18:50 42.59940 30.32719 39957 ft 458 kts 287°
2026-04-26 18:50 42.62519 30.24868 39961 ft 457 kts 302°
2026-04-26 18:51 42.66423 30.18055 39964 ft 457 kts 310°
2026-04-26 18:51 42.70639 30.11599 39968 ft 456 kts 311°
2026-04-26 18:52 42.74175 30.06270 39968 ft 456 kts 311°
2026-04-26 18:52 42.79115 29.98759 39974 ft 455 kts 311°
2026-04-26 18:53 42.83291 29.92350 39977 ft 455 kts 310°
2026-04-26 18:53 42.87513 29.85842 39982 ft 455 kts 310°
2026-04-26 18:54 42.91676 29.79413 39987 ft 455 kts 310°
2026-04-26 18:54 42.95867 29.72927 39994 ft 455 kts 310°
2026-04-26 18:55 43.00046 29.66447 40002 ft 454 kts 310°
2026-04-26 18:55 43.04213 29.59973 40004 ft 453 kts 310°
2026-04-26 18:56 43.08363 29.53511 40006 ft 451 kts 310°
2026-04-26 18:56 43.12517 29.47024 40010 ft 457 kts 310°
2026-04-26 18:57 43.15335 29.42617 40013 ft 460 kts 310°
2026-04-26 18:57 43.20931 29.33848 40023 ft 458 kts 310°
2026-04-26 18:58 43.24408 29.28384 40027 ft 457 kts 310°
2026-04-26 18:58 43.28580 29.21813 40029 ft 456 kts 310°
2026-04-26 18:59 43.32739 29.15251 40037 ft 455 kts 310°
2026-04-26 18:59 43.36887 29.08689 40035 ft 455 kts 310°
2026-04-26 19:00 43.41040 29.02103 40039 ft 455 kts 310°
2026-04-26 19:00 43.45187 28.95513 40045 ft 455 kts 310°
2026-04-26 19:01 43.49335 28.88907 40051 ft 455 kts 310°
2026-04-26 19:01 43.53478 28.82293 40061 ft 456 kts 309°
2026-04-26 19:02 43.57623 28.75660 40058 ft 457 kts 309°
2026-04-26 19:02 43.61072 28.70131 40058 ft 457 kts 309°
2026-04-26 19:03 43.65894 28.62379 40059 ft 457 kts 309°
2026-04-26 19:03 43.70036 28.55706 40061 ft 457 kts 309°
2026-04-26 19:04 43.74317 28.49233 40060 ft 457 kts 315°
2026-04-26 19:04 43.79009 28.43309 40059 ft 457 kts 317°
2026-04-26 19:05 43.86140 28.34552 40064 ft 457 kts 317°
2026-04-26 19:06 43.90868 28.28651 40063 ft 457 kts 316°
2026-04-26 19:06 43.95550 28.22669 40063 ft 458 kts 315°
2026-04-26 19:07 44.00243 28.16660 40068 ft 459 kts 315°
2026-04-26 19:07 44.04939 28.10654 40071 ft 459 kts 315°
2026-04-26 19:08 44.09646 28.04634 40070 ft 459 kts 315°
2026-04-26 19:08 44.14345 27.98611 40076 ft 459 kts 315°
2026-04-26 19:09 44.19041 27.92577 40072 ft 459 kts 315°
2026-04-26 19:09 44.23702 27.86573 40079 ft 459 kts 315°
2026-04-26 19:10 44.28389 27.80523 40087 ft 459 kts 315°
2026-04-26 19:10 44.33068 27.74470 40078 ft 458 kts 315°
2026-04-26 19:11 44.37736 27.68418 40086 ft 458 kts 315°
2026-04-26 19:11 44.42398 27.62359 40076 ft 457 kts 315°
2026-04-26 19:12 44.47044 27.56307 40081 ft 456 kts 315°
2026-04-26 19:12 44.51677 27.50257 40090 ft 455 kts 315°
2026-04-26 19:13 44.56291 27.44220 40094 ft 454 kts 315°
2026-04-26 19:13 44.60895 27.38181 40092 ft 453 kts 315°
2026-04-26 19:14 44.65487 27.32146 40101 ft 452 kts 315°
2026-04-26 19:14 44.70065 27.26114 40100 ft 451 kts 315°
2026-04-26 19:15 44.74638 27.20076 40097 ft 450 kts 315°
2026-04-26 19:15 44.79198 27.14042 40103 ft 450 kts 315°
2026-04-26 19:16 44.83752 27.08001 40104 ft 449 kts 315°
2026-04-26 19:16 44.88298 27.01957 40103 ft 449 kts 315°
2026-04-26 19:17 44.92842 26.95900 40104 ft 450 kts 315°
2026-04-26 19:17 44.97392 26.89823 40106 ft 450 kts 314°
2026-04-26 19:18 45.01947 26.83725 40107 ft 451 kts 314°
2026-04-26 19:18 45.06502 26.77612 40104 ft 452 kts 314°
2026-04-26 19:19 45.11069 26.71469 40108 ft 453 kts 314°
2026-04-26 19:19 45.15640 26.65308 40106 ft 454 kts 314°
2026-04-26 19:20 45.20051 26.59347 40108 ft 454 kts 314°
2026-04-26 19:20 45.24600 26.53186 40112 ft 453 kts 315°
2026-04-26 19:21 45.29165 26.46990 40108 ft 452 kts 315°
2026-04-26 19:21 45.33696 26.40824 40106 ft 450 kts 315°
2026-04-26 19:22 45.38210 26.34669 40110 ft 449 kts 315°
2026-04-26 19:22 45.42710 26.28516 40111 ft 448 kts 315°
2026-04-26 19:23 45.47201 26.22362 40114 ft 447 kts 315°
2026-04-26 19:23 45.51684 26.16209 40120 ft 447 kts 314°
2026-04-26 19:24 45.56159 26.10050 40128 ft 447 kts 314°
2026-04-26 19:24 45.62875 26.00779 40136 ft 448 kts 314°
2026-04-26 19:25 45.66595 25.95629 40135 ft 447 kts 314°
2026-04-26 19:25 45.71716 25.88527 40145 ft 437 kts 314°
2026-04-26 19:26 45.76065 25.82477 40142 ft 435 kts 313°
2026-04-26 19:26 45.80411 25.76416 40141 ft 435 kts 313°
2026-04-26 19:27 45.84746 25.70358 40141 ft 435 kts 313°
2026-04-26 19:27 45.89076 25.64293 40145 ft 435 kts 313°
2026-04-26 19:28 45.93412 25.58208 40146 ft 436 kts 313°
2026-04-26 19:28 45.97746 25.52108 40157 ft 436 kts 313°
2026-04-26 19:29 46.02083 25.45992 40165 ft 437 kts 313°
2026-04-26 19:29 46.06391 25.39903 40176 ft 437 kts 313°
2026-04-26 19:30 46.10751 25.33727 40180 ft 437 kts 313°
2026-04-26 19:30 46.14351 25.28615 40182 ft 437 kts 313°
2026-04-26 19:31 46.19382 25.21453 40185 ft 437 kts 313°
2026-04-26 19:31 46.23706 25.15281 40189 ft 437 kts 313°
2026-04-26 19:32 46.28028 25.09098 40191 ft 437 kts 313°
2026-04-26 19:32 46.32349 25.02904 40195 ft 437 kts 313°
2026-04-26 19:33 46.36660 24.96708 40196 ft 437 kts 313°
2026-04-26 19:33 46.40969 24.90501 40199 ft 437 kts 313°
2026-04-26 19:34 46.45270 24.84292 40197 ft 436 kts 313°
2026-04-26 19:34 46.49569 24.78072 40196 ft 436 kts 313°
2026-04-26 19:35 46.53854 24.71854 40196 ft 435 kts 313°
2026-04-26 19:35 46.58136 24.65628 40196 ft 435 kts 313°
2026-04-26 19:36 46.60965 24.61506 40194 ft 435 kts 313°
2026-04-26 19:36 46.66668 24.53176 40196 ft 434 kts 313°
2026-04-26 19:37 46.70924 24.46945 40199 ft 434 kts 313°
2026-04-26 19:37 46.75174 24.40705 40206 ft 433 kts 313°
2026-04-26 19:38 46.79388 24.34504 40211 ft 433 kts 312°
2026-04-26 19:38 46.83656 24.28210 40217 ft 433 kts 312°
2026-04-26 19:39 46.87864 24.21990 40220 ft 433 kts 312°
2026-04-26 19:39 46.92102 24.15711 40219 ft 433 kts 312°
2026-04-26 19:40 46.96330 24.09430 40224 ft 433 kts 312°
2026-04-26 19:40 47.00555 24.03140 40221 ft 433 kts 312°
2026-04-26 19:41 47.04785 23.96825 40222 ft 433 kts 312°
2026-04-26 19:41 47.07608 23.92603 40224 ft 433 kts 312°
2026-04-26 19:42 47.13225 23.84182 40227 ft 434 kts 312°
2026-04-26 19:42 47.17443 23.77841 40236 ft 434 kts 312°
2026-04-26 19:43 47.21659 23.71487 40228 ft 434 kts 312°
2026-04-26 19:43 47.25164 23.66193 40233 ft 435 kts 312°
2026-04-26 19:44 47.29380 23.59811 40234 ft 435 kts 312°
2026-04-26 19:44 47.33594 23.53416 40233 ft 435 kts 312°
2026-04-26 19:45 47.37799 23.47020 40228 ft 434 kts 312°
2026-04-26 19:45 47.42002 23.40609 40225 ft 434 kts 312°
2026-04-26 19:46 47.46201 23.34190 40225 ft 434 kts 312°
2026-04-26 19:46 47.50396 23.27764 40222 ft 434 kts 312°
2026-04-26 19:47 47.53909 23.22368 40223 ft 435 kts 312°
2026-04-26 19:47 47.58781 23.14867 40225 ft 435 kts 312°
2026-04-26 19:48 47.62969 23.08402 40231 ft 435 kts 312°
2026-04-26 19:48 47.67155 23.01924 40232 ft 435 kts 311°
2026-04-26 19:49 47.71341 22.95431 40236 ft 435 kts 311°
2026-04-26 19:49 47.75518 22.88934 40235 ft 435 kts 311°
2026-04-26 19:50 47.79693 22.82423 40237 ft 435 kts 311°
2026-04-26 19:50 47.83843 22.75937 40239 ft 435 kts 311°
2026-04-26 19:51 47.88039 22.69362 40237 ft 435 kts 311°
2026-04-26 19:51 47.92177 22.62862 40238 ft 435 kts 311°
2026-04-26 19:52 47.96344 22.56299 40235 ft 436 kts 311°
2026-04-26 19:52 48.00509 22.49724 40240 ft 436 kts 311°
2026-04-26 19:53 48.04674 22.43134 40238 ft 436 kts 311°
2026-04-26 19:53 48.08835 22.36531 40235 ft 436 kts 311°
2026-04-26 19:54 48.12995 22.29914 40237 ft 437 kts 311°
2026-04-26 19:54 48.17155 22.23279 40238 ft 437 kts 311°
2026-04-26 19:55 48.21309 22.16638 40238 ft 437 kts 311°
2026-04-26 19:55 48.25471 22.09966 40236 ft 438 kts 311°
2026-04-26 19:56 48.29648 22.03322 40233 ft 438 kts 314°
2026-04-26 19:56 48.34513 21.97752 40231 ft 443 kts 327°
2026-04-26 19:57 48.40312 21.94468 40234 ft 452 kts 344°
2026-04-26 19:57 48.46628 21.93796 40241 ft 460 kts 356°
2026-04-26 19:58 48.53053 21.94552 40234 ft 463 kts
2026-04-26 19:58 48.59419 21.95591 40242 ft 463 kts
2026-04-26 19:59 48.65829 21.96558 40238 ft 462 kts 360°
2026-04-26 19:59 48.72243 21.97439 40240 ft 462 kts 360°
2026-04-26 20:00 48.78634 21.98287 40244 ft 461 kts 359°
2026-04-26 20:00 48.85024 21.99137 40243 ft 460 kts 359°
2026-04-26 20:01 48.91393 21.99991 40246 ft 459 kts 359°
2026-04-26 20:01 48.97746 22.00853 40248 ft 458 kts 359°
2026-04-26 20:02 49.04095 22.01711 40249 ft 457 kts 359°
2026-04-26 20:02 49.09363 22.02419 40254 ft 457 kts 359°
2026-04-26 20:03 49.16760 22.03419 40254 ft 456 kts 359°
2026-04-26 20:03 49.23072 22.04282 40251 ft 455 kts 359°
2026-04-26 20:04 49.29379 22.05147 40251 ft 455 kts 359°
2026-04-26 20:04 49.35682 22.06004 40251 ft 455 kts 359°
2026-04-26 20:05 49.41983 22.06865 40250 ft 455 kts 359°
2026-04-26 20:05 49.48281 22.07731 40253 ft 454 kts 359°
2026-04-26 20:06 49.54577 22.08594 40256 ft 454 kts 359°
2026-04-26 20:06 49.60872 22.09462 40258 ft 454 kts 359°
2026-04-26 20:07 49.67170 22.10334 40258 ft 454 kts 359°
2026-04-26 20:07 49.73426 22.11203 40255 ft 454 kts 359°
2026-04-26 20:08 49.79711 22.12079 40251 ft 454 kts 359°
2026-04-26 20:08 49.86000 22.12956 40251 ft 454 kts 359°
2026-04-26 20:09 49.92286 22.13833 40252 ft 453 kts 359°
2026-04-26 20:09 49.98573 22.14715 40243 ft 453 kts 359°
2026-04-26 20:10 50.04852 22.15599 40238 ft 453 kts 359°
2026-04-26 20:10 50.11127 22.16485 40241 ft 453 kts 359°
2026-04-26 20:11 50.17400 22.17372 40244 ft 452 kts 359°
2026-04-26 20:12 50.26799 22.18706 40248 ft 452 kts 359°
2026-04-26 20:12 50.33018 22.19591 40251 ft 451 kts 359°
2026-04-26 20:13 50.39271 22.20484 40252 ft 451 kts 359°
2026-04-26 20:13 50.45524 22.21379 40256 ft 451 kts 359°
2026-04-26 20:14 50.51776 22.22275 40257 ft 451 kts 359°
2026-04-26 20:14 50.58024 22.23172 40257 ft 451 kts 359°
2026-04-26 20:15 50.64263 22.24071 40256 ft 450 kts 359°
2026-04-26 20:15 50.70509 22.24974 40256 ft 450 kts 359°
2026-04-26 20:16 50.76741 22.25878 40260 ft 450 kts 359°
2026-04-26 20:16 50.82970 22.26786 40257 ft 449 kts 360°
2026-04-26 20:17 50.89194 22.27694 40256 ft 449 kts 360°
2026-04-26 20:17 50.95421 22.28603 40261 ft 449 kts 360°
2026-04-26 20:18 51.01643 22.29514 40258 ft 449 kts 360°
2026-04-26 20:18 51.07861 22.30426 40257 ft 448 kts 360°
2026-04-26 20:19 51.14030 22.31327 40250 ft 448 kts 360°
2026-04-26 20:19 51.20242 22.32252 40257 ft 448 kts 360°
2026-04-26 20:20 51.26452 22.33176 40252 ft 448 kts 360°
2026-04-26 20:20 51.32662 22.34100 40251 ft 448 kts 360°
2026-04-26 20:21 51.38872 22.35025 40253 ft 448 kts 360°
2026-04-26 20:21 51.45080 22.35952 40256 ft 448 kts 360°
2026-04-26 20:22 51.51287 22.36881 40256 ft 448 kts 360°
2026-04-26 20:22 51.57488 22.37811 40257 ft 448 kts
2026-04-26 20:23 51.63690 22.38745 40258 ft 447 kts
2026-04-26 20:23 51.69888 22.39682 40248 ft 447 kts
2026-04-26 20:24 51.76086 22.40623 40252 ft 447 kts
2026-04-26 20:24 51.82283 22.41565 40250 ft 447 kts
2026-04-26 20:25 51.88473 22.42508 40247 ft 447 kts
2026-04-26 20:25 51.94664 22.43453 40247 ft 447 kts
2026-04-26 20:26 52.00859 22.44401 40246 ft 447 kts
2026-04-26 20:26 52.07052 22.45351 40243 ft 447 kts
2026-04-26 20:27 52.13208 22.46299 40241 ft 447 kts
2026-04-26 20:27 52.19396 22.47254 40244 ft 447 kts
2026-04-26 20:28 52.25585 22.48213 40241 ft 447 kts
2026-04-26 20:28 52.31784 22.49174 40235 ft 447 kts
2026-04-26 20:29 52.37982 22.50139 40235 ft 447 kts
2026-04-26 20:29 52.44180 22.51106 40233 ft 448 kts
2026-04-26 20:30 52.50416 22.52078 40229 ft 455 kts
2026-04-26 20:30 52.56771 22.53071 40226 ft 462 kts
2026-04-26 20:31 52.63176 22.54114 40229 ft 463 kts
2026-04-26 20:31 52.69556 22.55895 40230 ft 466 kts
2026-04-26 20:32 52.74844 22.57636 40228 ft 466 kts
2026-04-26 20:32 52.81220 22.59669 40252 ft 467 kts
2026-04-26 20:32 52.85457 22.60964 40428 ft 465 kts
2026-04-26 20:33 52.87600 22.61615 40725 ft 460 kts
2026-04-26 20:33 52.90736 22.62561 41069 ft 457 kts
2026-04-26 20:33 52.93869 22.63493 41221 ft 457 kts
2026-04-26 20:34 53.00113 22.65345 41222 ft 456 kts
2026-04-26 20:34 53.06327 22.67202 41218 ft 457 kts
2026-04-26 20:35 53.12599 22.69089 41212 ft 462 kts
2026-04-26 20:35 53.18975 22.71013 41211 ft 469 kts
2026-04-26 20:36 53.25420 22.72971 41209 ft 471 kts
2026-04-26 20:36 53.31861 22.74937 41208 ft 470 kts
2026-04-26 20:37 53.38311 22.76911 41204 ft 470 kts
2026-04-26 20:37 53.44707 22.78871 41200 ft 470 kts
2026-04-26 20:38 53.51142 22.80846 41196 ft 470 kts
2026-04-26 20:38 53.57571 22.82826 41193 ft 470 kts
2026-04-26 20:39 53.64015 22.84819 41188 ft 470 kts
2026-04-26 20:39 53.70453 22.86814 41186 ft 471 kts
2026-04-26 20:40 53.76900 22.88819 41184 ft 471 kts
2026-04-26 20:40 53.83340 22.90829 41181 ft 471 kts
2026-04-26 20:41 53.89786 22.92846 41178 ft 471 kts
2026-04-26 20:41 53.96241 22.94871 41171 ft 471 kts
2026-04-26 20:42 54.02691 22.96903 41169 ft 472 kts
2026-04-26 20:42 54.09106 22.98930 41166 ft 472 kts
2026-04-26 20:43 54.15601 23.00989 41165 ft 472 kts
2026-04-26 20:43 54.22023 23.03032 41162 ft 472 kts
2026-04-26 20:44 54.28483 23.05093 41161 ft 472 kts
2026-04-26 20:44 54.34947 23.07135 41151 ft 472 kts
2026-04-26 20:45 54.41414 23.09082 41155 ft 472 kts
2026-04-26 20:45 54.47896 23.11021 41143 ft 473 kts
2026-04-26 20:46 54.54374 23.12980 41139 ft 473 kts
2026-04-26 20:46 54.60865 23.14961 41140 ft 473 kts
2026-04-26 20:47 54.67353 23.16951 41132 ft 474 kts
2026-04-26 20:47 54.73845 23.18949 41128 ft 474 kts
2026-04-26 20:48 54.80340 23.20953 41125 ft 474 kts
2026-04-26 20:48 54.86840 23.22966 41124 ft 475 kts
2026-04-26 20:49 54.93348 23.24987 41122 ft 475 kts
2026-04-26 20:49 54.99857 23.27015 41117 ft 475 kts
2026-04-26 20:50 55.06325 23.29037 41115 ft 476 kts
2026-04-26 20:50 55.12844 23.31083 41108 ft 476 kts
2026-04-26 20:51 55.19368 23.33137 41104 ft 477 kts
2026-04-26 20:51 55.25907 23.35202 41103 ft 477 kts
2026-04-26 20:52 55.32441 23.37272 41097 ft 477 kts
2026-04-26 20:52 55.38979 23.39351 41095 ft 478 kts
2026-04-26 20:53 55.45516 23.41442 41092 ft 478 kts
2026-04-26 20:53 55.52047 23.43762 41092 ft 479 kts
2026-04-26 20:54 55.58570 23.46198 41082 ft 479 kts
2026-04-26 20:54 55.65101 23.48620 41079 ft 479 kts
2026-04-26 20:55 55.71593 23.51005 41076 ft 479 kts
2026-04-26 20:55 55.78119 23.53400 41075 ft 479 kts
2026-04-26 20:56 55.84648 23.55803 41077 ft 479 kts
2026-04-26 20:56 55.91180 23.58217 41075 ft 479 kts
2026-04-26 20:57 55.97710 23.60639 41072 ft 479 kts
2026-04-26 20:57 56.04239 23.63070 41066 ft 479 kts
2026-04-26 20:58 56.10768 23.65509 41060 ft 479 kts
2026-04-26 20:58 56.17298 23.67958 41049 ft 479 kts
2026-04-26 20:59 56.23826 23.70413 41040 ft 479 kts
2026-04-26 20:59 56.30353 23.72877 41040 ft 479 kts
2026-04-26 21:00 56.36875 23.75348 41029 ft 476 kts
2026-04-26 21:00 56.43293 23.77686 41032 ft 467 kts
2026-04-26 21:01 56.49610 23.79854 41023 ft 465 kts
2026-04-26 21:01 56.55962 23.82016 41019 ft 465 kts
2026-04-26 21:02 56.62318 23.84198 41015 ft 465 kts
2026-04-26 21:02 56.68678 23.86399 41016 ft 465 kts
2026-04-26 21:03 56.75041 23.88611 41015 ft 465 kts
2026-04-26 21:03 56.81398 23.90830 41022 ft 466 kts
2026-04-26 21:04 56.87766 23.93059 41023 ft 466 kts
2026-04-26 21:04 56.94136 23.95296 41021 ft 466 kts
2026-04-26 21:05 57.00513 23.97544 41022 ft 466 kts
2026-04-26 21:05 57.06887 23.99798 41016 ft 467 kts
2026-04-26 21:06 57.13262 24.02061 41005 ft 467 kts
2026-04-26 21:06 57.19647 24.04336 40994 ft 467 kts
2026-04-26 21:07 57.26034 24.06619 40981 ft 468 kts
2026-04-26 21:07 57.32432 24.08913 40977 ft 468 kts
2026-04-26 21:08 57.38790 24.11202 40976 ft 469 kts
2026-04-26 21:08 57.45236 24.13531 40976 ft 469 kts
2026-04-26 21:09 57.51604 24.15840 40975 ft 469 kts
2026-04-26 21:09 57.58017 24.18173 40973 ft 470 kts
2026-04-26 21:10 57.64430 24.20515 40964 ft 470 kts
2026-04-26 21:10 57.70853 24.22870 40962 ft 470 kts
2026-04-26 21:11 57.77277 24.25232 40958 ft 470 kts
2026-04-26 21:11 57.83703 24.27605 40966 ft 471 kts
2026-04-26 21:12 57.90126 24.29984 40951 ft 471 kts
2026-04-26 21:12 57.96562 24.32290 40952 ft 471 kts
2026-04-26 21:13 58.03006 24.34517 40955 ft 471 kts
2026-04-26 21:13 58.09453 24.36730 40951 ft 471 kts
2026-04-26 21:14 58.15902 24.38954 40945 ft 471 kts
2026-04-26 21:14 58.22352 24.41191 40939 ft 471 kts
2026-04-26 21:15 58.28799 24.43437 40940 ft 471 kts
2026-04-26 21:15 58.35247 24.45692 40940 ft 471 kts
2026-04-26 21:16 58.41695 24.47955 40941 ft 472 kts
2026-04-26 21:16 58.48151 24.50236 40941 ft 472 kts
2026-04-26 21:17 58.54604 24.52514 40937 ft 472 kts
2026-04-26 21:17 58.61025 24.54791 40930 ft 472 kts
2026-04-26 21:18 58.67482 24.57092 40886 ft 470 kts
2026-04-26 21:18 58.70684 24.58240 40431 ft 466 kts
2026-04-26 21:18 58.73869 24.59386 39843 ft 465 kts
2026-04-26 21:18 58.77050 24.60531 39270 ft 465 kts
2026-04-26 21:19 58.80224 24.61669 38723 ft 464 kts
2026-04-26 21:19 58.83391 24.62803 38082 ft 463 kts
2026-04-26 21:19 58.86554 24.63936 37398 ft 461 kts
2026-04-26 21:19 58.89701 24.65065 36740 ft 460 kts
2026-04-26 21:20 58.92807 24.66186 35793 ft 448 kts
2026-04-26 21:20 58.95898 24.67303 34789 ft 455 kts
2026-04-26 21:20 58.97966 24.68039 34347 ft 455 kts
2026-04-26 21:20 59.01052 24.69131 33588 ft 444 kts
2026-04-26 21:21 59.05018 24.70562 31550 ft 434 kts
2026-04-26 21:21 59.07975 24.71652 29836 ft 430 kts
2026-04-26 21:21 59.10894 24.72722 27875 ft 424 kts
2026-04-26 21:21 59.12841 24.73424 26652 ft 418 kts
2026-04-26 21:22 59.15673 24.74438 24993 ft 409 kts
2026-04-26 21:22 59.18442 24.75433 23475 ft 398 kts
2026-04-26 21:22 59.21131 24.76407 21631 ft 389 kts
2026-04-26 21:23 59.26328 24.78316 18078 ft 377 kts
2026-04-26 21:23 59.28885 24.79264 16244 ft 370 kts
2026-04-26 21:23 59.31379 24.80191 14674 ft 360 kts
2026-04-26 21:23 59.33818 24.81099 13651 ft 359 kts
2026-04-26 21:24 59.36272 24.82011 13051 ft 355 kts
2026-04-26 21:24 59.38638 24.82898 12890 ft 336 kts
2026-04-26 21:24 59.40833 24.83944 12891 ft 316 kts 14°
2026-04-26 21:24 59.42847 24.85325 12805 ft 300 kts 16°
2026-04-26 21:25 59.44761 24.86759 12585 ft 288 kts 17°
2026-04-26 21:25 59.46588 24.88205 12380 ft 278 kts 18°
2026-04-26 21:25 59.48341 24.89639 12134 ft 269 kts 18°
2026-04-26 21:25 59.50048 24.91055 11907 ft 265 kts 19°
2026-04-26 21:26 59.51735 24.92461 11622 ft 262 kts 19°
2026-04-26 21:26 59.53419 24.93864 11161 ft 263 kts 19°
2026-04-26 21:26 59.55095 24.95276 10739 ft 262 kts 19°
2026-04-26 21:26 59.56764 24.96686 10338 ft 260 kts 19°
2026-04-26 21:27 59.58422 24.98080 9985 ft 258 kts 19°
2026-04-26 21:27 59.60068 24.99462 9883 ft 258 kts 19°
2026-04-26 21:27 59.61722 25.00847 9869 ft 258 kts 19°
2026-04-26 21:27 59.61911 25.01006 9881 ft 258 kts 19°
2026-04-26 21:28 59.62975 25.01897 9886 ft 258 kts 19°
2026-04-26 21:28 59.64604 25.03263 9886 ft 257 kts 19°
2026-04-26 21:28 59.66254 25.04647 9885 ft 257 kts 19°
2026-04-26 21:28 59.67904 25.06032 9887 ft 258 kts 19°
2026-04-26 21:29 59.69556 25.07419 9886 ft 257 kts 19°
2026-04-26 21:29 59.71205 25.08807 9884 ft 258 kts 19°
2026-04-26 21:29 59.72292 25.09723 9883 ft 257 kts 20°
2026-04-26 21:29 59.73924 25.11098 9508 ft 254 kts 20°
2026-04-26 21:30 59.75552 25.12472 9020 ft 254 kts 20°
2026-04-26 21:30 59.77175 25.13843 8591 ft 253 kts 20°
2026-04-26 21:30 59.78793 25.15211 8158 ft 252 kts 20°
2026-04-26 21:30 59.80398 25.16570 7747 ft 250 kts 20°
2026-04-26 21:31 59.81991 25.17921 7327 ft 248 kts 20°
2026-04-26 21:31 59.83582 25.19268 6884 ft 248 kts 20°
2026-04-26 21:31 59.85161 25.20609 6485 ft 246 kts 20°
2026-04-26 21:31 59.86723 25.21941 6339 ft 241 kts 20°
2026-04-26 21:32 59.88280 25.23266 6680 ft 247 kts 20°
2026-04-26 21:32 59.89880 25.24500 6863 ft 246 kts 14°
2026-04-26 21:32 59.91554 25.24993 6892 ft 244 kts
2026-04-26 21:32 59.93251 25.24870 6899 ft 244 kts 356°
2026-04-26 21:33 59.94944 25.24629 6883 ft 244 kts 356°
2026-04-26 21:33 59.96636 25.24377 6898 ft 244 kts 356°
2026-04-26 21:33 59.98330 25.24129 6891 ft 244 kts 356°
2026-04-26 21:33 60.00025 25.23883 6891 ft 244 kts 356°
2026-04-26 21:34 60.01722 25.23639 6892 ft 244 kts 356°
2026-04-26 21:34 60.03395 25.23400 6884 ft 244 kts 356°
2026-04-26 21:34 60.05093 25.23158 6890 ft 244 kts 356°
2026-04-26 21:34 60.06811 25.22913 6891 ft 244 kts 356°
2026-04-26 21:35 60.08469 25.22678 6550 ft 242 kts 356°
2026-04-26 21:35 60.10150 25.22439 6103 ft 242 kts 356°
2026-04-26 21:35 60.11824 25.22200 5688 ft 241 kts 356°
2026-04-26 21:35 60.13487 25.21962 5275 ft 239 kts 356°
2026-04-26 21:36 60.15138 25.21724 4888 ft 237 kts 356°
2026-04-26 21:36 60.16780 25.21489 4479 ft 235 kts 356°
2026-04-26 21:36 60.18407 25.21255 4112 ft 233 kts 356°
2026-04-26 21:36 60.20019 25.21024 4012 ft 232 kts 356°
2026-04-26 21:37 60.21632 25.20793 3994 ft 233 kts 356°
2026-04-26 21:37 60.23249 25.20561 4010 ft 233 kts 356°
2026-04-26 21:37 60.24863 25.20329 4002 ft 232 kts 356°
2026-04-26 21:37 60.26473 25.20097 3990 ft 232 kts 356°
2026-04-26 21:38 60.28086 25.19867 3992 ft 232 kts 356°
2026-04-26 21:38 60.29700 25.19687 4006 ft 233 kts 359°
2026-04-26 21:38 60.31295 25.20153 3891 ft 232 kts 16°
2026-04-26 21:38 60.32684 25.21798 3478 ft 235 kts 37°
2026-04-26 21:39 60.33823 25.24153 3128 ft 234 kts 43°
2026-04-26 21:39 60.34873 25.26559 3015 ft 221 kts 44°
2026-04-26 21:39 60.35846 25.28827 3001 ft 207 kts 44°
2026-04-26 21:39 60.36783 25.30993 2998 ft 203 kts 43°
2026-04-26 21:40 60.37702 25.33101 3000 ft 202 kts 43°
2026-04-26 21:40 60.38714 25.35046 3003 ft 199 kts 31°
2026-04-26 21:40 60.39975 25.36061 2994 ft 195 kts
2026-04-26 21:40 60.41315 25.35796 2996 ft 197 kts 343°
2026-04-26 21:41 60.42491 25.34365 3004 ft 195 kts 326°
2026-04-26 21:41 60.43464 25.32585 2999 ft 181 kts 323°
2026-04-26 21:41 60.44339 25.30885 2994 ft 168 kts 322°
2026-04-26 21:41 60.45109 25.29122 3001 ft 169 kts 311°
2026-04-26 21:42 60.45417 25.26778 2979 ft 182 kts 271°
2026-04-26 21:42 60.44997 25.24427 3061 ft 180 kts 247°
2026-04-26 21:42 60.44195 25.22454 3022 ft 180 kts 234°
2026-04-26 21:42 60.43353 25.20681 3008 ft 171 kts 234°
2026-04-26 21:43 60.42563 25.18951 3008 ft 163 kts 235°
2026-04-26 21:43 60.41819 25.17296 2879 ft 155 kts 236°
2026-04-26 21:43 60.41112 25.15697 2664 ft 151 kts 237°
2026-04-26 21:43 60.40406 25.14125 2461 ft 151 kts 237°
2026-04-26 21:44 60.39697 25.12557 2227 ft 151 kts 237°
2026-04-26 21:44 60.38990 25.10997 2002 ft 150 kts 238°
2026-04-26 21:44 60.38287 25.09443 1808 ft 150 kts 239°
2026-04-26 21:44 60.37588 25.07890 1578 ft 149 kts 239°
2026-04-26 21:45 60.36899 25.06357 1381 ft 147 kts 238°
2026-04-26 21:45 60.36221 25.04851 1145 ft 143 kts 238°
2026-04-26 21:45 60.35572 25.03374 965 ft 138 kts 235°
2026-04-26 21:45 60.34904 25.02010 783 ft 135 kts 229°
2026-04-26 21:46 60.34286 25.00645 632 ft 131 kts 234°
2026-04-26 21:46 60.33674 24.99279 390 ft 130 kts 233°
2026-04-26 21:46 60.33077 24.97979 236 ft 124 kts 232°
2026-04-26 21:46 60.32479 24.96695 586 ft 139 kts 233°
2026-04-26 21:47 60.31772 24.95036 975 ft 171 kts 235°
2026-04-26 21:47 60.30892 24.93143 1357 ft 199 kts 234°
2026-04-26 21:47 60.29795 24.91337 2123 ft 214 kts 211°
2026-04-26 21:47 60.28343 24.90687 2725 ft 215 kts 177°
2026-04-26 21:48 60.26934 24.91487 2971 ft 208 kts 144°
2026-04-26 21:48 60.25971 24.93513 3011 ft 197 kts 111°
2026-04-26 21:48 60.25441 24.95996 3044 ft 193 kts 101°
2026-04-26 21:48 60.25291 24.98563 3009 ft 180 kts 75°
2026-04-26 21:49 60.25532 25.00996 3000 ft 175 kts 65°
2026-04-26 21:49 60.25993 25.03227 2999 ft 171 kts 57°
2026-04-26 21:49 60.26534 25.05354 3002 ft 170 kts 53°
2026-04-26 21:49 60.27155 25.07375 3001 ft 169 kts 51°
2026-04-26 21:50 60.27786 25.09366 3003 ft 168 kts 51°
2026-04-26 21:50 60.28201 25.10683 2995 ft 168 kts 50°
2026-04-26 21:50 60.29038 25.13341 3000 ft 168 kts 50°
2026-04-26 21:50 60.29661 25.15319 2998 ft 168 kts 50°
2026-04-26 21:51 60.30087 25.16667 3003 ft 169 kts 50°
2026-04-26 21:51 60.30698 25.18588 2994 ft 168 kts 50°
2026-04-26 21:51 60.31352 25.20513 2998 ft 168 kts 49°
2026-04-26 21:51 60.32027 25.22452 3000 ft 167 kts 48°
2026-04-26 21:52 60.32699 25.24345 3003 ft 166 kts 47°
2026-04-26 21:52 60.33378 25.26236 3007 ft 167 kts 47°
2026-04-26 21:52 60.34080 25.28094 2981 ft 166 kts 46°
2026-04-26 21:52 60.34792 25.29939 3001 ft 166 kts 45°
2026-04-26 21:53 60.35512 25.31753 3001 ft 165 kts 43°
2026-04-26 21:53 60.36283 25.33451 3003 ft 163 kts 41°
2026-04-26 21:53 60.37058 25.35114 3005 ft 163 kts 41°
2026-04-26 21:53 60.37823 25.36754 3002 ft 163 kts 40°
2026-04-26 21:54 60.38612 25.38391 2978 ft 160 kts 36°
2026-04-26 21:54 60.39598 25.39313 2981 ft 156 kts
2026-04-26 21:54 60.40656 25.38908 3007 ft 158 kts 341°
2026-04-26 21:54 60.41611 25.37769 2982 ft 163 kts 324°
2026-04-26 21:55 60.42343 25.35962 2984 ft 169 kts 313°
2026-04-26 21:55 60.42985 25.33963 2980 ft 169 kts 311°
2026-04-26 21:55 60.43601 25.31984 2977 ft 160 kts 310°
2026-04-26 21:55 60.44153 25.30156 3033 ft 148 kts 310°
2026-04-26 21:56 60.44685 25.28382 3011 ft 148 kts 310°
2026-04-26 21:56 60.45210 25.26587 2976 ft 151 kts 306°
2026-04-26 21:56 60.45201 25.24337 2979 ft 178 kts 255°
2026-04-26 21:56 60.44366 25.22386 3014 ft 187 kts 227°
2026-04-26 21:57 60.43386 25.20651 3002 ft 187 kts 228°
2026-04-26 21:57 60.42509 25.18778 3010 ft 178 kts 236°
2026-04-26 21:57 60.41702 25.16967 2854 ft 170 kts 235°
2026-04-26 21:57 60.40923 25.15258 2617 ft 162 kts 235°
2026-04-26 21:58 60.40179 25.13623 2374 ft 154 kts 236°
2026-04-26 21:58 60.39470 25.12059 2169 ft 149 kts 237°
2026-04-26 21:58 60.38773 25.10515 1950 ft 148 kts 238°
2026-04-26 21:58 60.38078 25.08979 1737 ft 148 kts 239°
2026-04-26 21:59 60.37389 25.07447 1528 ft 147 kts 239°
2026-04-26 21:59 60.36704 25.05928 1329 ft 145 kts 238°
2026-04-26 21:59 60.36039 25.04449 1096 ft 140 kts 238°
2026-04-26 21:59 60.35400 25.03008 931 ft 136 kts 233°
2026-04-26 22:00 60.34743 25.01654 724 ft 133 kts 233°
2026-04-26 22:00 60.34133 25.00293 530 ft 128 kts 234°
2026-04-26 22:00 60.33530 24.98974 332 ft 127 kts 232°
2026-04-26 22:00 60.32943 24.97680 207 ft 124 kts 232°
2026-04-26 22:01 60.32416 24.96472 182 ft 99 kts 228°
2026-04-26 22:01 60.32132 24.95854 183 ft 32 kts 223°
2026-04-26 22:01 60.31940 24.95640 178 ft 32 kts 198°
2026-04-26 22:01 60.31843 24.95601 176 ft 0 kts 166°
2026-04-26 22:02 60.31843 24.95602 176 ft 0 kts 166°
2026-04-26 22:02 60.31623 24.95571 173 ft 37 kts 213°
2026-04-26 22:02 60.31192 24.94720 170 ft 137 kts 221°
2026-04-26 22:03 60.30442 24.92954 469 ft 181 kts 262°
2026-04-26 22:03 60.30884 24.91683 136 ft 33 kts 45°